User: anonymous   Login
Location: Newark
(37.3333°N, 6.0167°W)
Time: 03:45:33
(UTC+00:00)
Language:

ITUPSAT 1 - Orbit

View from above orbital plane
View from above orbital plane
View from above satellite
View from above satellite

Ground track
Ground track

The orbit data is extracted from the following two-line orbital elements,

1 35935U 09051E   19341.03286666  .00000092  00000-0  32323-4 0  9993
2 35935  98.6116 154.2426 0008393  18.8657 341.2849 14.55572777541562
Epoch (UTC): 07 December 2019 00:47:19
Eccentricity: 0.0008393
inclination: 98.6116°
perigee height: 701 km
apogee height: 713 km
right ascension of ascending node: 154.2426°
argument of perigee: 18.8657°
revolutions per day: 14.55572777
mean anomaly at epoch: 341.2849°
orbit number at epoch: 54156

The dashed part of the orbit path shows where the satellite is in the earth's shadow,  

DLR